Flag for Kazakhstan Weather past 2 weeks in Almaty, Kazakhstan

Now
61 °F

Sprinkles. Mostly cloudy.


Feels Like: 61 °F
Forecast: 52 / 73 °F
Wind: 6 mph from South

Location: Almaty Airport

Current Time: Oct 2, 2014 at 4:53:57 PM

Latest Report: Oct 2, 2014 at 4:30 PM


Visibility: N/A

Pressure: 30.09 "Hg

Humidity: 77%

Dew point: 54 °F

Location of AlmatyLocation

Historic Weather in Almaty — Graph

°F

Almaty temperature yesterday

Maximum temperature yesterday: 64 °F (at 12:30 AM)
Minimum temperature yesterday: 54 °F (at 10:30 PM)
Average temperature yesterday: 58 °F

Past Weeks' High & Low Weather Summary

 TemperatureHumidityPressure
High91 °F (Sep 18, 2:00 PM)94% (Sep 28, 12:00 AM)30.45 "Hg (Sep 28, 12:00 AM)
Low36 °F (Sep 20, 5:00 AM)11% (Sep 18, 2:00 PM)29.65 "Hg (Sep 27, 1:00 PM)
Average60 °F52%30.01 "Hg
* Reported Sep 17 3:00 PM — Oct 2 3:30 PM, Almaty, Weather by CustomWeather, © 2014

Note: Actual official high and low records may vary slightly from our data, if they occured in-between our weather recording intervals... More about our weather records

Advertising

Almaty weather history for previous 24 hours

 ConditionsComfort  
Time TempWeatherWind HumidityBarometerVisibility
3:30 PM
Oct 2
64 °FMostly cloudy.1 mph60%30.07 "HgN/A
2:30 PM64 °FBroken clouds.1 mph56%30.04 "HgN/A
1:30 PM64 °FBroken clouds.6 mph52%30.04 "HgN/A
12:30 PM64 °FBroken clouds.8 mph56%30.04 "HgN/A
11:30 AM64 °FBroken clouds.6 mph52%30.07 "HgN/A
10:30 AM61 °FPartly sunny.1 mph68%30.07 "HgN/A
9:30 AM57 °FPartly sunny.6 mph72%30.09 "HgN/A
8:30 AM52 °FBroken clouds.1 mph88%30.12 "HgN/A
7:30 AM50 °FBroken clouds.6 mph88%30.12 "HgN/A
6:30 AM52 °FBroken clouds.3 mph88%30.12 "HgN/A
5:30 AM50 °FSprinkles. Mostly cloudy.1 mph88%30.12 "HgN/A
4:30 AM52 °FMostly cloudy.1 mph82%30.15 "HgN/A
3:30 AM52 °FOvercast.3 mph82%30.15 "HgN/A
2:30 AM54 °FPassing clouds.8 mph77%30.09 "HgN/A
1:30 AM54 °FPartly cloudy.10 mph77%30.12 "HgN/A
12:30 AM54 °FPartly cloudy.8 mph82%30.12 "HgN/A
11:30 PM
Oct 1
54 °FMostly cloudy.1 mph82%30.18 "HgN/A
10:30 PM54 °FMostly cloudy.3 mph82%30.21 "HgN/A
9:30 PM55 °FMostly cloudy.6 mph77%30.21 "HgN/A
8:30 PM55 °FMostly cloudy.3 mph82%30.21 "HgN/A
7:30 PM55 °FPartly cloudy.10 mph82%30.21 "HgN/A
6:30 PM55 °FPartly cloudy.6 mph82%30.21 "HgN/A
5:30 PM57 °FBroken clouds.8 mph77%30.21 "HgN/A
4:30 PM59 °FPartly sunny.8 mph77%30.21 "HgN/A
Weather by CustomWeather, © 2014

See weather overviewHow to use our weather pages